Location: Umburanas
(4.5000°S, 37.9667°W)
Time: 03:39:19
(UTC+00:00)

Cosmos 1862 Rocket - Pass Details

Date: 19 November 2019
Orbit: 604 x 634 km, 82.5° (Epoch: 07 December)

Event Time Altitude Azimuth Distance (km) Brightness Sun altitude
Rises 21:52:59 0° 180° (S) 2,888 7.3 -20.8°
Reaches altitude 10° 21:55:13 10° 178° (S) 1,975 6.4 -21.3°
Maximum altitude 21:59:34 71° 94° (E) 645 3.4 -22.3°
Enters shadow 21:59:47 70° 70° (ENE) 650 3.3 -22.3°
